Flag for Switzerland Weather past 2 weeks in Kriens, Lucerne, Switzerland

Now
25 °F

Chilly.


Feels Like: 21 °F
Forecast: 34 / 53 °F
Wind: 3 mph from West

Location: Giswil

Current Time: Dec 22, 2014 at 8:19:43 AM

Latest Report: Dec 22, 2014 at 7:00 AM


Visibility: N/A

Pressure: 30.57 "Hg

Humidity: 100%

Dew point: 25 °F

Location of KriensLocation

Historic Weather in Kriens — Graph

°F

Kriens temperature yesterday

Maximum temperature yesterday: 44 °F (at 2:00 PM)
Minimum temperature yesterday: 28 °F (at 11:00 PM)
Average temperature yesterday: 37 °F

Past Weeks' High & Low Weather Summary

 TemperatureHumidityPressure
High50 °F (Dec 19, 10:00 PM)100% (Dec 7, 7:00 AM)30.65 "Hg (Dec 7, 7:00 AM)
Low25 °F (Dec 22, 6:00 AM)48% (Dec 11, 7:00 PM)29.90 "Hg (Dec 12, 9:00 PM)
Average39 °F94%30.21 "Hg
* Reported Dec 7 7:00 AM — Dec 22 7:00 AM, Kriens, Weather by CustomWeather, © 2014

Note: Actual official high and low records may vary slightly from our data, if they occured in-between our weather recording intervals... More about our weather records

Advertising

Kriens weather history for previous 24 hours

 ConditionsComfort  
Time TempWeatherWind HumidityBarometerVisibility
7:00 AM
Dec 22
25 °FChilly.3 mph100%30.57 "HgN/A
6:00 AM25 °FChilly.2 mph100%30.56 "HgN/A
5:00 AM27 °FChilly.2 mph100%30.56 "HgN/A
3:00 AM26 °FChilly.No wind100%30.57 "HgN/A
2:00 AM28 °FChilly.2 mph100%30.60 "HgN/A
1:00 AM27 °FChilly.2 mph100%30.60 "HgN/A
12:00 AM27 °FChilly.1 mph100%30.61 "HgN/A
11:00 PM
Dec 21
28 °FChilly.1 mph100%30.62 "HgN/A
9:00 PM28 °FChilly.2 mph100%30.64 "HgN/A
8:00 PM30 °FChilly.1 mph100%30.62 "HgN/A
7:00 PM31 °FChilly.2 mph100%30.63 "HgN/A
6:00 PM33 °FChilly.No wind100%30.60 "HgN/A
5:00 PM36 °FChilly.1 mph97%30.59 "HgN/A
4:00 PM40 °FQuite cool.1 mph80%30.56 "HgN/A
3:00 PM44 °FQuite cool.No wind63%30.56 "HgN/A
2:00 PM44 °FQuite cool.1 mph64%30.56 "HgN/A
1:00 PM42 °FQuite cool.1 mph73%30.59 "HgN/A
12:00 PM38 °FChilly.2 mph87%30.60 "HgN/A
11:00 AM36 °FChilly.No wind93%30.62 "HgN/A
10:00 AM30 °FChilly.3 mph100%30.65 "HgN/A
9:00 AM31 °FChilly.No wind100%30.65 "HgN/A
8:00 AM30 °FChilly.2 mph100%30.63 "HgN/A
Weather by CustomWeather, © 2014

See weather overviewHow to use our weather pages